Flag for U.S.A. Weather past 2 weeks in Modesto, California, U.S.A.

Now
53 °F

Partly cloudy.


Feels Like: 52 °F
Forecast: 47 / 57 °F
Wind: 5 mph from Southeast

Location: Modesto City-County-Sham Field

Current Time: Dec 19, 2014 at 5:52:39 PM

Latest Report: Dec 19, 2014 at 4:53 PM


Visibility: 10 mi

Pressure: 30.15 "Hg

Humidity: 93%

Dew point: 51 °F

Location of ModestoLocation

Historic Weather in Modesto — Graph

°F

Modesto temperature yesterday

Maximum temperature yesterday: 60 °F (at 1:53 PM)
Minimum temperature yesterday: 48 °F (at 9:53 PM)
Average temperature yesterday: 53 °F

Past Weeks' High & Low Weather Summary

 TemperatureHumidityPressure
High71 °F (Dec 6, 1:53 PM)100% (Dec 9, 3:53 AM)32.98 "Hg (Dec 9, 3:53 AM)
Low43 °F (Dec 14, 2:53 AM)54% (Dec 11, 9:53 AM)29.60 "Hg (Dec 11, 11:53 AM)
Average53 °F87%30.06 "Hg
* Reported Dec 4 4:53 PM — Dec 19 4:53 PM, Modesto, Weather by CustomWeather, © 2014

Note: Actual official high and low records may vary slightly from our data, if they occured in-between our weather recording intervals... More about our weather records

Advertising

Modesto weather history for previous 24 hours

 ConditionsComfort  
Time TempWeatherWind HumidityBarometerVisibility
4:53 PM
Dec 19
53 °FPartly cloudy.5 mph93%30.15 "Hg10 mi
3:53 PM54 °FLight rain. Overcast.7 mph90%30.16 "Hg9 mi
2:53 PM54 °FLight rain. Overcast.5 mph90%30.17 "Hg7 mi
1:53 PM55 °FLight rain. Overcast.5 mph80%30.16 "Hg7 mi
12:53 PM55 °FLight rain. Mostly cloudy.6 mph74%30.17 "Hg6 mi
11:53 AM55 °FBroken clouds.9 mph72%30.17 "Hg10 mi
10:53 AM53 °FBroken clouds.8 mph74%30.19 "Hg10 mi
9:53 AM52 °FMostly cloudy.8 mph75%30.21 "Hg10 mi
8:53 AM51 °FMostly cloudy.5 mph77%30.20 "Hg10 mi
7:53 AM51 °FBroken clouds.8 mph77%30.16 "Hg10 mi
6:53 AM50 °FClear.7 mph80%30.15 "Hg10 mi
5:53 AM51 °FMostly cloudy.8 mph80%30.16 "Hg10 mi
4:53 AM50 °FOvercast.7 mph83%30.18 "Hg10 mi
3:53 AM49 °FPassing clouds.9 mph86%30.16 "Hg10 mi
2:53 AM48 °FPassing clouds.8 mph89%30.20 "Hg9 mi
1:53 AM49 °FFog.No wind90%30.21 "Hg6 mi
12:53 AM49 °FFog.5 mph90%30.19 "Hg6 mi
11:53 PM
Dec 18
50 °FFog.3 mph89%30.20 "Hg6 mi
10:53 PM50 °FClear.5 mph86%30.19 "Hg8 mi
9:53 PM48 °FFog.8 mph93%30.18 "Hg6 mi
8:53 PM49 °FFog.6 mph90%30.18 "Hg6 mi
7:53 PM49 °FFog.5 mph93%30.17 "Hg5 mi
6:53 PM50 °FFog.No wind93%30.17 "Hg6 mi
5:53 PM54 °FClear.No wind80%30.17 "Hg10 mi
Weather by CustomWeather, © 2014

See weather overviewHow to use our weather pages